OAL893 MROC-SEGS

Flight info

Callsign OAL893
Flight time 1h 44m
Altitude 36000
Route PARRI TIGIR COCOS LOGAL GLV
Aircraft A310/H-SDFGHIM1RTUWXY/LB1

Departure

Time 2026-05-06 15:30
Airport Juan Santamaría International Airport (MROC)

Arrival

Time 2026-05-06 17:15
Airport Seymour Galapagos Ecological Airport (SEGS)
Time Latitude Longitude Altitude Speed Heading
2026-05-06 15:22 9.99586 -84.21170 3029 ft 0 kts 338°
2026-05-06 15:24 9.99583 -84.21169 3025 ft 3 kts 338°
2026-05-06 15:24 9.99565 -84.21161 3026 ft 3 kts 337°
2026-05-06 15:24 9.99548 -84.21153 3027 ft 3 kts 313°
2026-05-06 15:25 9.99539 -84.21136 3027 ft 3 kts 275°
2026-05-06 15:25 9.99542 -84.21117 3026 ft 3 kts 236°
2026-05-06 15:26 9.99532 -84.21133 3029 ft 7 kts 242°
2026-05-06 15:26 9.99494 -84.21195 3024 ft 11 kts 203°
2026-05-06 15:26 9.99395 -84.21186 3024 ft 16 kts 179°
2026-05-06 15:27 9.99339 -84.21273 3018 ft 15 kts 250°
2026-05-06 15:27 9.99302 -84.21375 3021 ft 17 kts 249°
2026-05-06 15:27 9.99254 -84.21505 3019 ft 20 kts 249°
2026-05-06 15:27 9.99204 -84.21636 3023 ft 20 kts 249°
2026-05-06 15:28 9.99156 -84.21765 3021 ft 19 kts 250°
2026-05-06 15:28 9.99107 -84.21891 3021 ft 19 kts 250°
2026-05-06 15:28 9.99097 -84.22017 3024 ft 17 kts 279°
2026-05-06 15:28 9.99072 -84.22132 3026 ft 17 kts 248°
2026-05-06 15:29 9.98981 -84.22179 3016 ft 19 kts 164°
2026-05-06 15:29 9.98925 -84.22118 3013 ft 0 kts 72°
2026-05-06 15:29 9.98934 -84.22092 3016 ft 22 kts 71°
2026-05-06 15:29 9.99067 -84.21747 3019 ft 82 kts 70°
2026-05-06 15:30 9.99336 -84.21029 3013 ft 134 kts 69°
2026-05-06 15:30 9.99726 -84.20008 3112 ft 168 kts 68°
2026-05-06 15:30 10.00107 -84.18908 3641 ft 167 kts 86°
2026-05-06 15:30 9.99605 -84.17824 4023 ft 188 kts 141°
2026-05-06 15:31 9.98238 -84.17554 4308 ft 220 kts 192°
2026-05-06 15:31 9.96885 -84.18385 4797 ft 238 kts 231°
2026-05-06 15:31 9.96074 -84.19858 5410 ft 242 kts 244°
2026-05-06 15:32 9.94718 -84.23098 6767 ft 254 kts 248°
2026-05-06 15:32 9.93997 -84.24755 7464 ft 259 kts 242°
2026-05-06 15:32 9.93131 -84.26412 8062 ft 272 kts 241°
2026-05-06 15:32 9.91984 -84.27945 8675 ft 277 kts 213°
2026-05-06 15:33 9.90222 -84.28632 9452 ft 273 kts 182°
2026-05-06 15:33 9.88339 -84.28679 10184 ft 277 kts 175°
2026-05-06 15:33 9.86370 -84.28609 10690 ft 292 kts 174°
2026-05-06 15:33 9.84237 -84.28526 11066 ft 313 kts 174°
2026-05-06 15:34 9.82030 -84.28438 11408 ft 332 kts 175°
2026-05-06 15:34 9.79654 -84.28367 11772 ft 350 kts 175°
2026-05-06 15:34 9.77153 -84.28296 12144 ft 366 kts 175°
2026-05-06 15:34 9.74554 -84.28225 12488 ft 379 kts 176°
2026-05-06 15:35 9.71865 -84.28408 12832 ft 395 kts 185°
2026-05-06 15:35 9.69119 -84.28891 13192 ft 406 kts 188°
2026-05-06 15:35 9.66328 -84.29449 13683 ft 411 kts 188°
2026-05-06 15:35 9.63512 -84.29995 14237 ft 413 kts 187°
2026-05-06 15:36 9.60687 -84.30522 14801 ft 414 kts 187°
2026-05-06 15:36 9.57834 -84.31024 15366 ft 415 kts 187°
2026-05-06 15:36 9.55018 -84.31518 15942 ft 416 kts 187°
2026-05-06 15:36 9.52132 -84.32077 16543 ft 419 kts 193°
2026-05-06 15:37 9.49480 -84.33254 17162 ft 424 kts 207°
2026-05-06 15:37 9.46965 -84.34840 17728 ft 428 kts 211°
2026-05-06 15:37 9.44451 -84.36479 18228 ft 431 kts 210°
2026-05-06 15:37 9.41896 -84.38070 18669 ft 434 kts 209°
2026-05-06 15:38 9.39287 -84.39625 19108 ft 436 kts 208°
2026-05-06 15:38 9.36648 -84.41153 19555 ft 437 kts 207°
2026-05-06 15:38 9.34004 -84.42700 20008 ft 439 kts 208°
2026-05-06 15:38 9.31365 -84.44259 20470 ft 441 kts 208°
2026-05-06 15:39 9.28700 -84.45808 20938 ft 442 kts 208°
2026-05-06 15:39 9.26037 -84.47377 21415 ft 443 kts 208°
2026-05-06 15:39 9.23363 -84.48938 21898 ft 444 kts 208°
2026-05-06 15:39 9.20688 -84.50509 22396 ft 444 kts 208°
2026-05-06 15:40 9.18015 -84.52071 22901 ft 445 kts 208°
2026-05-06 15:40 9.15319 -84.53650 23432 ft 445 kts 208°
2026-05-06 15:40 9.12674 -84.55205 23861 ft 446 kts 208°
2026-05-06 15:40 9.09988 -84.56772 24291 ft 446 kts 208°
2026-05-06 15:41 9.07292 -84.58347 24735 ft 446 kts 208°
2026-05-06 15:41 9.04603 -84.59920 25171 ft 447 kts 208°
2026-05-06 15:41 9.01907 -84.61494 25628 ft 447 kts 208°
2026-05-06 15:41 8.99195 -84.63075 25986 ft 451 kts 208°
2026-05-06 15:42 8.96466 -84.64663 26333 ft 455 kts 208°
2026-05-06 15:42 8.93712 -84.66263 26688 ft 458 kts 208°
2026-05-06 15:42 8.90941 -84.67869 27053 ft 461 kts 208°
2026-05-06 15:42 8.88141 -84.69490 27404 ft 464 kts 208°
2026-05-06 15:43 8.85330 -84.71116 27771 ft 467 kts 209°
2026-05-06 15:43 8.82512 -84.72764 28144 ft 469 kts 209°
2026-05-06 15:43 8.79678 -84.74420 28522 ft 472 kts 209°
2026-05-06 15:43 8.76822 -84.76088 28905 ft 474 kts 209°
2026-05-06 15:44 8.73962 -84.77756 29293 ft 475 kts 209°
2026-05-06 15:44 8.71133 -84.79414 29681 ft 477 kts 209°
2026-05-06 15:44 8.68255 -84.81089 30068 ft 478 kts 209°
2026-05-06 15:44 8.65374 -84.82775 30413 ft 479 kts 209°
2026-05-06 15:45 8.62481 -84.84460 30750 ft 480 kts 209°
2026-05-06 15:45 8.59583 -84.86156 31096 ft 481 kts 209°
2026-05-06 15:45 8.56687 -84.87844 31443 ft 481 kts 209°
2026-05-06 15:45 8.53785 -84.89538 31797 ft 482 kts 209°
2026-05-06 15:46 8.50885 -84.91232 32157 ft 482 kts 209°
2026-05-06 15:46 8.47981 -84.92920 32511 ft 482 kts 209°
2026-05-06 15:46 8.45045 -84.94550 32891 ft 481 kts 206°
2026-05-06 15:46 8.42060 -84.96029 33265 ft 480 kts 204°
2026-05-06 15:47 8.39032 -84.97470 33642 ft 479 kts 204°
2026-05-06 15:47 8.36024 -84.98893 34021 ft 478 kts 204°
2026-05-06 15:47 8.33026 -85.00345 34354 ft 477 kts 205°
2026-05-06 15:47 8.30031 -85.01809 34693 ft 475 kts 205°
2026-05-06 15:48 8.27103 -85.03242 35031 ft 474 kts 205°
2026-05-06 15:48 8.24138 -85.04692 35379 ft 472 kts 205°
2026-05-06 15:48 8.21193 -85.06132 35720 ft 471 kts 205°
2026-05-06 15:48 8.18232 -85.07580 35865 ft 475 kts 205°
2026-05-06 15:49 8.12207 -85.10525 35944 ft 484 kts 205°
2026-05-06 15:49 8.06144 -85.13492 35969 ft 485 kts 205°
2026-05-06 15:50 8.00076 -85.16468 35962 ft 485 kts 205°
2026-05-06 15:50 7.93997 -85.19427 35962 ft 486 kts 205°
2026-05-06 15:51 7.87946 -85.22374 35965 ft 486 kts 205°
2026-05-06 15:51 7.81855 -85.25346 35960 ft 486 kts 205°
2026-05-06 15:52 7.75764 -85.28322 35964 ft 486 kts 205°
2026-05-06 15:52 7.69677 -85.31282 35961 ft 486 kts 205°
2026-05-06 15:53 7.63588 -85.34245 35965 ft 486 kts 205°
2026-05-06 15:53 7.57489 -85.37212 35961 ft 486 kts 205°
2026-05-06 15:54 7.51400 -85.40174 35964 ft 486 kts 205°
2026-05-06 15:54 7.45301 -85.43140 35963 ft 486 kts 205°
2026-05-06 15:55 7.39211 -85.46101 35963 ft 486 kts 205°
2026-05-06 15:55 7.33154 -85.49056 35962 ft 486 kts 205°
2026-05-06 15:56 7.27062 -85.52022 35963 ft 487 kts 205°
2026-05-06 15:56 7.20962 -85.54975 35961 ft 487 kts 205°
2026-05-06 15:57 7.14853 -85.57939 35964 ft 487 kts 205°
2026-05-06 15:57 7.08758 -85.60911 35962 ft 487 kts 205°
2026-05-06 15:58 7.02656 -85.63867 35968 ft 487 kts 205°
2026-05-06 15:58 6.96544 -85.66826 35961 ft 487 kts 205°
2026-05-06 15:59 6.90448 -85.69797 35966 ft 487 kts 205°
2026-05-06 15:59 6.84330 -85.72755 35957 ft 487 kts 205°
2026-05-06 16:00 6.79253 -85.75223 35964 ft 487 kts 205°
2026-05-06 16:00 6.73147 -85.78189 35963 ft 488 kts 205°
2026-05-06 16:01 6.67038 -85.81153 35965 ft 488 kts 205°
2026-05-06 16:01 6.60931 -85.84121 35960 ft 488 kts 205°
2026-05-06 16:02 6.54817 -85.87100 35961 ft 488 kts 205°
2026-05-06 16:02 6.48704 -85.90085 35960 ft 488 kts 205°
2026-05-06 16:03 6.42590 -85.93045 35968 ft 488 kts 205°
2026-05-06 16:03 6.36470 -85.96016 35961 ft 488 kts 204°
2026-05-06 16:04 6.30389 -85.98960 35959 ft 488 kts 205°
2026-05-06 16:04 6.24261 -86.01916 35963 ft 488 kts 205°
2026-05-06 16:05 6.18146 -86.04871 35958 ft 488 kts 205°
2026-05-06 16:05 6.12022 -86.07833 35960 ft 488 kts 204°
2026-05-06 16:06 6.05908 -86.10790 35965 ft 488 kts 204°
2026-05-06 16:06 5.99784 -86.13751 35962 ft 488 kts 204°
2026-05-06 16:07 5.93670 -86.16713 35963 ft 488 kts 204°
2026-05-06 16:07 5.87541 -86.19674 35960 ft 488 kts 205°
2026-05-06 16:08 5.81448 -86.22688 35962 ft 489 kts 208°
2026-05-06 16:08 5.75687 -86.26262 35966 ft 490 kts 212°
2026-05-06 16:09 5.69919 -86.29912 35959 ft 490 kts 210°
2026-05-06 16:09 5.64063 -86.33511 35966 ft 491 kts 210°
2026-05-06 16:10 5.58274 -86.37062 35957 ft 491 kts 210°
2026-05-06 16:10 5.52429 -86.40647 35963 ft 492 kts 210°
2026-05-06 16:11 5.46576 -86.44241 35957 ft 493 kts 210°
2026-05-06 16:11 5.40728 -86.47836 35960 ft 493 kts 210°
2026-05-06 16:12 5.34877 -86.51432 35961 ft 494 kts 210°
2026-05-06 16:12 5.29014 -86.55038 35959 ft 494 kts 210°
2026-05-06 16:13 5.23186 -86.58620 35964 ft 494 kts 210°
2026-05-06 16:13 5.17303 -86.62208 35959 ft 494 kts 210°
2026-05-06 16:14 5.11439 -86.65813 35962 ft 494 kts 211°
2026-05-06 16:14 5.05561 -86.69409 35960 ft 494 kts 210°
2026-05-06 16:15 4.99700 -86.73011 35962 ft 494 kts 210°
2026-05-06 16:15 4.93827 -86.76595 35962 ft 493 kts 211°
2026-05-06 16:16 4.88006 -86.80162 35958 ft 493 kts 210°
2026-05-06 16:16 4.82154 -86.83754 35963 ft 492 kts 210°
2026-05-06 16:17 4.76313 -86.87325 35960 ft 492 kts 211°
2026-05-06 16:17 4.70466 -86.90900 35957 ft 491 kts 211°
2026-05-06 16:18 4.64635 -86.94466 35963 ft 491 kts 210°
2026-05-06 16:18 4.58795 -86.98037 35958 ft 491 kts 210°
2026-05-06 16:19 4.52996 -87.01583 35965 ft 491 kts 210°
2026-05-06 16:19 4.47156 -87.05154 35963 ft 491 kts 210°
2026-05-06 16:20 4.41322 -87.08721 35966 ft 491 kts 210°
2026-05-06 16:20 4.35478 -87.12293 35965 ft 491 kts 210°
2026-05-06 16:21 4.29641 -87.15860 35962 ft 492 kts 210°
2026-05-06 16:21 4.23797 -87.19438 35963 ft 492 kts 210°
2026-05-06 16:22 4.17957 -87.23011 35957 ft 492 kts 210°
2026-05-06 16:22 4.12142 -87.26557 35963 ft 492 kts 211°
2026-05-06 16:23 4.06299 -87.30121 35960 ft 492 kts 211°
2026-05-06 16:23 4.00449 -87.33692 35963 ft 492 kts 211°
2026-05-06 16:24 3.94611 -87.37255 35963 ft 492 kts 211°
2026-05-06 16:24 3.88773 -87.40819 35965 ft 492 kts 211°
2026-05-06 16:25 3.82926 -87.44388 35961 ft 491 kts 211°
2026-05-06 16:25 3.77078 -87.47963 35955 ft 493 kts 211°
2026-05-06 16:26 3.71220 -87.51539 35963 ft 493 kts 210°
2026-05-06 16:26 3.65388 -87.55088 35957 ft 493 kts 210°
2026-05-06 16:27 3.59522 -87.58674 35965 ft 493 kts 210°
2026-05-06 16:27 3.53663 -87.62252 35960 ft 494 kts 210°
2026-05-06 16:28 3.47795 -87.65839 35962 ft 494 kts 210°
2026-05-06 16:28 3.41938 -87.69424 35963 ft 494 kts 210°
2026-05-06 16:29 3.36081 -87.73015 35960 ft 494 kts 210°
2026-05-06 16:29 3.30213 -87.76618 35966 ft 494 kts 210°
2026-05-06 16:30 3.25323 -87.79586 35964 ft 494 kts 210°
2026-05-06 16:30 3.18458 -87.83770 35967 ft 495 kts 210°
2026-05-06 16:31 3.12608 -87.87336 35960 ft 495 kts 210°
2026-05-06 16:31 3.06713 -87.90936 35961 ft 496 kts 210°
2026-05-06 16:32 3.00819 -87.94520 35959 ft 496 kts 211°
2026-05-06 16:32 2.94912 -87.98113 35955 ft 497 kts 210°
2026-05-06 16:33 2.89001 -88.01711 35960 ft 497 kts 210°
2026-05-06 16:34 2.80192 -88.07084 35959 ft 496 kts 210°
2026-05-06 16:34 2.74283 -88.10681 35959 ft 496 kts 210°
2026-05-06 16:35 2.68385 -88.14270 35963 ft 496 kts 210°
2026-05-06 16:35 2.62474 -88.17860 35955 ft 496 kts 211°
2026-05-06 16:36 2.56576 -88.21444 35960 ft 496 kts 210°
2026-05-06 16:36 2.50684 -88.25037 35956 ft 496 kts 210°
2026-05-06 16:37 2.44779 -88.28631 35958 ft 496 kts 210°
2026-05-06 16:37 2.38921 -88.32195 35960 ft 497 kts 210°
2026-05-06 16:38 2.32980 -88.35808 35957 ft 497 kts 211°
2026-05-06 16:38 2.27106 -88.39379 35957 ft 497 kts 211°
2026-05-06 16:39 2.21198 -88.42967 35955 ft 497 kts 211°
2026-05-06 16:39 2.15275 -88.46559 35957 ft 497 kts 211°
2026-05-06 16:40 2.09364 -88.50154 35956 ft 498 kts 211°
2026-05-06 16:40 2.03442 -88.53759 35959 ft 498 kts 211°
2026-05-06 16:41 1.97519 -88.57365 35954 ft 498 kts 211°
2026-05-06 16:41 1.91605 -88.60961 35953 ft 498 kts 211°
2026-05-06 16:42 1.85717 -88.64536 35958 ft 498 kts 211°
2026-05-06 16:42 1.79795 -88.68124 35959 ft 498 kts 211°
2026-05-06 16:43 1.73877 -88.71722 35958 ft 498 kts 211°
2026-05-06 16:43 1.67948 -88.75330 35956 ft 498 kts 211°
2026-05-06 16:44 1.62028 -88.78933 35954 ft 498 kts 211°
2026-05-06 16:44 1.56110 -88.82523 35957 ft 498 kts 211°
2026-05-06 16:45 1.50179 -88.86115 35956 ft 497 kts 211°
2026-05-06 16:45 1.44270 -88.89718 35957 ft 497 kts 211°
2026-05-06 16:46 1.38451 -88.93427 35961 ft 496 kts 215°
2026-05-06 16:46 1.32910 -88.97474 35958 ft 496 kts 217°
2026-05-06 16:47 1.27324 -89.01515 35961 ft 496 kts 216°
2026-05-06 16:47 1.21701 -89.05523 35959 ft 496 kts 216°
2026-05-06 16:48 1.16097 -89.09533 35957 ft 496 kts 216°
2026-05-06 16:48 1.10484 -89.13556 35961 ft 495 kts 216°
2026-05-06 16:49 1.05890 -89.16852 35521 ft 483 kts 216°
2026-05-06 16:49 1.03174 -89.18788 35158 ft 475 kts 216°
2026-05-06 16:49 1.00522 -89.20698 34785 ft 467 kts 216°
2026-05-06 16:49 0.97895 -89.22574 34417 ft 460 kts 216°
2026-05-06 16:50 0.95301 -89.24429 34057 ft 456 kts 216°
2026-05-06 16:50 0.92743 -89.26276 33667 ft 453 kts 216°
2026-05-06 16:50 0.90187 -89.28116 33259 ft 451 kts 216°
2026-05-06 16:50 0.87644 -89.29951 32856 ft 449 kts 216°
2026-05-06 16:51 0.85124 -89.31773 32468 ft 447 kts 216°
2026-05-06 16:51 0.82612 -89.33596 32081 ft 444 kts 216°
2026-05-06 16:51 0.80112 -89.35403 31707 ft 441 kts 215°
2026-05-06 16:51 0.77623 -89.37172 31320 ft 438 kts 215°
2026-05-06 16:52 0.75180 -89.38933 30942 ft 436 kts 215°
2026-05-06 16:52 0.72695 -89.40706 30584 ft 433 kts 215°
2026-05-06 16:52 0.70253 -89.42455 30216 ft 430 kts 215°
2026-05-06 16:52 0.67863 -89.44177 29841 ft 427 kts 215°
2026-05-06 16:53 0.65450 -89.45904 29403 ft 425 kts 215°
2026-05-06 16:53 0.63060 -89.47615 28992 ft 422 kts 215°
2026-05-06 16:53 0.60679 -89.49321 28583 ft 419 kts 215°
2026-05-06 16:53 0.58314 -89.51019 28171 ft 417 kts 215°
2026-05-06 16:54 0.55971 -89.52702 27782 ft 414 kts 215°
2026-05-06 16:54 0.53636 -89.54381 27387 ft 412 kts 215°
2026-05-06 16:54 0.51316 -89.56052 27002 ft 409 kts 215°
2026-05-06 16:54 0.49017 -89.57708 26618 ft 407 kts 215°
2026-05-06 16:55 0.46715 -89.59370 26236 ft 405 kts 215°
2026-05-06 16:55 0.45624 -89.60158 26057 ft 404 kts 215°
2026-05-06 16:55 0.43383 -89.61779 25684 ft 394 kts 215°
2026-05-06 16:55 0.41152 -89.63367 25322 ft 395 kts 214°
2026-05-06 16:56 0.38919 -89.64974 24961 ft 395 kts 214°
2026-05-06 16:56 0.36686 -89.66565 24608 ft 394 kts 214°
2026-05-06 16:56 0.34460 -89.68164 24252 ft 393 kts 214°
2026-05-06 16:56 0.32240 -89.69750 23911 ft 392 kts 215°
2026-05-06 16:57 0.30031 -89.71336 23566 ft 390 kts 214°
2026-05-06 16:57 0.27830 -89.72905 23160 ft 388 kts 215°
2026-05-06 16:57 0.25648 -89.74477 22748 ft 385 kts 214°
2026-05-06 16:57 0.23475 -89.76025 22341 ft 383 kts 214°
2026-05-06 16:58 0.21347 -89.77557 21952 ft 380 kts 214°
2026-05-06 16:58 0.19212 -89.79090 21549 ft 378 kts 214°
2026-05-06 16:58 0.17085 -89.80619 21180 ft 375 kts 214°
2026-05-06 16:58 0.14982 -89.82138 20791 ft 373 kts 214°
2026-05-06 16:59 0.12888 -89.83656 20420 ft 370 kts 214°
2026-05-06 16:59 0.10812 -89.85169 20036 ft 368 kts 214°
2026-05-06 16:59 0.08755 -89.86665 19674 ft 365 kts 213°
2026-05-06 16:59 0.06692 -89.88139 19311 ft 363 kts 213°
2026-05-06 17:00 0.04641 -89.89603 18939 ft 361 kts 213°
2026-05-06 17:00 0.02606 -89.91063 18589 ft 359 kts 213°
2026-05-06 17:00 0.00580 -89.92523 18232 ft 356 kts 213°
2026-05-06 17:00 -0.01398 -89.93954 17830 ft 354 kts 213°
2026-05-06 17:01 -0.03383 -89.95391 17432 ft 352 kts 213°
2026-05-06 17:01 -0.05362 -89.96820 17025 ft 349 kts 213°
2026-05-06 17:01 -0.07334 -89.98238 16628 ft 346 kts 213°
2026-05-06 17:01 -0.09278 -89.99632 16238 ft 340 kts 213°
2026-05-06 17:02 -0.11183 -90.00996 15854 ft 334 kts 213°
2026-05-06 17:02 -0.13062 -90.02339 15469 ft 330 kts 213°
2026-05-06 17:02 -0.14915 -90.03660 15089 ft 326 kts 213°
2026-05-06 17:02 -0.16748 -90.04964 14730 ft 322 kts 213°
2026-05-06 17:03 -0.18555 -90.06245 14368 ft 318 kts 213°
2026-05-06 17:03 -0.20352 -90.07514 14005 ft 314 kts 213°
2026-05-06 17:03 -0.22130 -90.08765 13633 ft 310 kts 213°
2026-05-06 17:03 -0.23880 -90.10002 13232 ft 307 kts 214°
2026-05-06 17:04 -0.25607 -90.11246 12829 ft 304 kts 214°
2026-05-06 17:04 -0.27325 -90.12471 12432 ft 301 kts 214°
2026-05-06 17:04 -0.29017 -90.13686 12048 ft 298 kts 213°
2026-05-06 17:04 -0.30675 -90.14872 11664 ft 296 kts 214°
2026-05-06 17:05 -0.32339 -90.16064 11271 ft 293 kts 213°
2026-05-06 17:05 -0.33991 -90.17245 10906 ft 290 kts 214°
2026-05-06 17:05 -0.35623 -90.18421 10531 ft 288 kts 214°
2026-05-06 17:05 -0.37239 -90.19590 10170 ft 286 kts 214°
2026-05-06 17:06 -0.38842 -90.20751 9796 ft 283 kts 214°
2026-05-06 17:06 -0.40429 -90.21904 9392 ft 281 kts 214°
2026-05-06 17:06 -0.42008 -90.23050 8997 ft 279 kts 214°
2026-05-06 17:06 -0.43566 -90.24181 8593 ft 274 kts 214°
2026-05-06 17:07 -0.44865 -90.25495 8195 ft 261 kts 239°
2026-05-06 17:07 -0.45367 -90.27169 7837 ft 248 kts 270°
2026-05-06 17:07 -0.45012 -90.28791 7475 ft 235 kts 294°
2026-05-06 17:07 -0.44318 -90.30233 7119 ft 225 kts 297°
2026-05-06 17:08 -0.43617 -90.31598 6732 ft 218 kts 297°
2026-05-06 17:08 -0.42928 -90.32927 6369 ft 214 kts 297°
2026-05-06 17:08 -0.42246 -90.34235 5970 ft 211 kts 297°
2026-05-06 17:08 -0.41569 -90.35508 5589 ft 209 kts 297°
2026-05-06 17:09 -0.40877 -90.36780 5202 ft 207 kts 297°
2026-05-06 17:09 -0.40180 -90.38032 4820 ft 206 kts 297°
2026-05-06 17:09 -0.39482 -90.39278 4465 ft 203 kts 297°
2026-05-06 17:09 -0.38608 -90.40368 4153 ft 203 kts 326°
2026-05-06 17:10 -0.37281 -90.40759 3878 ft 200 kts
2026-05-06 17:10 -0.36059 -90.40301 3621 ft 180 kts 45°
2026-05-06 17:10 -0.35531 -90.39308 3391 ft 156 kts 91°
2026-05-06 17:10 -0.35827 -90.38338 3167 ft 145 kts 123°
2026-05-06 17:11 -0.36353 -90.37464 2911 ft 146 kts 124°
2026-05-06 17:11 -0.36875 -90.36603 2676 ft 146 kts 124°
2026-05-06 17:11 -0.37397 -90.35741 2428 ft 145 kts 124°
2026-05-06 17:11 -0.37910 -90.34880 2179 ft 143 kts 124°
2026-05-06 17:12 -0.38424 -90.34020 1937 ft 144 kts 124°
2026-05-06 17:12 -0.38925 -90.33153 1736 ft 144 kts 124°
2026-05-06 17:12 -0.39426 -90.32287 1531 ft 144 kts 124°
2026-05-06 17:12 -0.39927 -90.31425 1316 ft 143 kts 124°
2026-05-06 17:13 -0.40459 -90.30596 1079 ft 141 kts 133°
2026-05-06 17:13 -0.41095 -90.29855 863 ft 141 kts 137°
2026-05-06 17:13 -0.41808 -90.29188 655 ft 144 kts 143°
2026-05-06 17:13 -0.42611 -90.28586 476 ft 145 kts 146°
2026-05-06 17:14 -0.43430 -90.28001 299 ft 143 kts 144°
2026-05-06 17:14 -0.44215 -90.27424 171 ft 136 kts 143°
2026-05-06 17:14 -0.44953 -90.26891 179 ft 116 kts 144°
2026-05-06 17:14 -0.45469 -90.26520 206 ft 66 kts 144°
2026-05-06 17:15 -0.45711 -90.26347 203 ft 27 kts 144°
2026-05-06 17:15 -0.45873 -90.26227 216 ft 31 kts 143°
2026-05-06 17:15 -0.46046 -90.26107 216 ft 29 kts 144°
2026-05-06 17:15 -0.46186 -90.26002 216 ft 19 kts 131°
2026-05-06 17:16 -0.46213 -90.25949 215 ft 4 kts 236°
2026-05-06 17:16 -0.46156 -90.26025 217 ft 24 kts 321°
2026-05-06 17:16 -0.46005 -90.26134 212 ft 28 kts 324°
2026-05-06 17:16 -0.45847 -90.26247 206 ft 28 kts 324°
2026-05-06 17:17 -0.45685 -90.26366 207 ft 30 kts 324°
2026-05-06 17:17 -0.45521 -90.26484 196 ft 29 kts 324°
2026-05-06 17:17 -0.45359 -90.26601 189 ft 28 kts 324°
2026-05-06 17:17 -0.45205 -90.26710 187 ft 26 kts 325°
2026-05-06 17:18 -0.45054 -90.26821 179 ft 28 kts 323°
2026-05-06 17:18 -0.44898 -90.26933 177 ft 27 kts 325°
2026-05-06 17:18 -0.44746 -90.27044 170 ft 24 kts 324°
2026-05-06 17:18 -0.44646 -90.27047 167 ft 14 kts 54°
2026-05-06 17:19 -0.44639 -90.26970 168 ft 9 kts 72°
2026-05-06 17:19 -0.44618 -90.26935 169 ft 2 kts 26°
2026-05-06 17:19 -0.44611 -90.26953 169 ft 2 kts 231°
2026-05-06 17:19 -0.44612 -90.26953 169 ft 0 kts 230°